Location: *
(46.1200°N, 11.2700°E)
Time: 15:35:04
(UTC+00:00)

Helios 1A Rocket - Pass Details

Date: 02 March 2021
Orbit: 564 x 584 km, 98.3° (Epoch: 23 April)

Event Time Altitude Azimuth Distance (km) Brightness Sun altitude
Rises 17:33:35 0° 141° (SE) 2,770 6.1 -6.1°
Reaches altitude 10° 17:35:52 10° 132° (SE) 1,873 5.1 -6.5°
Maximum altitude 17:39:31 33° 68° (ENE) 973 3.6 -7.1°
Drops below altitude 10° 17:43:09 10° 4° (N) 1,877 5.5 -7.8°
Sets 17:45:26 0° 355° (N) 2,776 6.5 -8.2°
